Flag for Germany Weather past 2 weeks in Göttingen, Lower Saxony, Germany

Now
50 °F

Sunny.


Feels Like: 50 °F
Forecast: 46 / 64 °F
Wind: 2 mph from North

Location: Kassel / Calden


UV Index: 3 (Moderate)

Visibility: 10 mi


Pressure: 29.80 "Hg

Humidity: 88%

Dew point: 46 °F

Location of GöttingenLocation

Historic Weather in Göttingen

°F

Göttingen temperature yesterday

Maximum temperature yesterday: 59 °F (at 4:20 PM)
Minimum temperature yesterday: 37 °F (at 5:50 AM)
Average temperature yesterday: 51 °F

Past Weeks' High & Low Weather Summary

 TemperatureHumidityPressure
High68 °F (Apr 7, 2:50 PM)100% (Apr 6, 6:20 AM)30.45 "Hg (Apr 6, 6:20 AM)
Low30 °F (Apr 16, 5:50 AM)33% (Apr 17, 6:20 PM)29.74 "Hg (Apr 20, 4:20 PM)
Average50 °F71%30.06 "Hg
* Reported Apr 5 8:20 PM — Apr 20 8:50 PM, Göttingen, Weather by CustomWeather, © 2014

Note: Actual official high and low records may vary slightly from our data, if they occured in-between our weather recording intervals... More about our weather records

Advertising

Historic Weather Conditions — Data for Previous 24 hours

 ConditionsComfort  
Time TempWeatherWind HumidityBarometerVisibility
8:50 PM
Apr 20
52 °FSunny.7 mph82%29.77 "Hg10 mi
8:20 PM54 °FPassing clouds.7 mph77%29.77 "HgN/A
7:50 PM55 °FThundershowers. Scattered clouds.24 mph67%29.77 "HgN/A
7:20 PM63 °FSunny.13 mph52%29.74 "Hg10 mi
6:50 PM64 °FSunny.17 mph46%29.74 "Hg10 mi
6:20 PM64 °FSunny.16 mph46%29.74 "Hg10 mi
5:50 PM64 °FSunny.16 mph46%29.74 "Hg10 mi
5:20 PM64 °FSunny.13 mph46%29.74 "Hg10 mi
4:50 PM64 °FSunny.14 mph46%29.74 "Hg10 mi
4:20 PM66 °FSunny.16 mph43%29.74 "Hg10 mi
3:50 PM64 °FPassing clouds.16 mph46%29.77 "HgN/A
3:20 PM63 °FSunny.17 mph49%29.77 "Hg10 mi
2:50 PM64 °FScattered clouds.18 mph46%29.77 "HgN/A
2:20 PM63 °FScattered clouds.17 mph49%29.77 "HgN/A
1:50 PM63 °FScattered clouds.16 mph52%29.77 "HgN/A
1:20 PM63 °FScattered clouds.20 mph52%29.77 "HgN/A
12:50 PM61 °FScattered clouds.20 mph55%29.80 "HgN/A
12:20 PM61 °FScattered clouds.21 mph55%29.80 "HgN/A
11:50 AM61 °FScattered clouds.15 mph59%29.80 "HgN/A
11:20 AM61 °FScattered clouds.18 mph59%29.80 "HgN/A
10:50 AM61 °FPassing clouds.16 mph59%29.80 "HgN/A
10:20 AM59 °FPassing clouds.14 mph63%29.83 "HgN/A
9:50 AM59 °FPassing clouds.9 mph63%29.83 "HgN/A
9:20 AM55 °FSunny.3 mph72%29.83 "Hg10 mi
8:50 AM54 °FSunny.3 mph77%29.83 "Hg10 mi
8:20 AM52 °FSunny.6 mph88%29.83 "Hg10 mi
7:50 AM52 °FSunny.3 mph82%29.83 "Hg10 mi
7:20 AM52 °FSunny.5 mph82%29.83 "Hg10 mi
6:50 AM52 °FPassing clouds.5 mph82%29.83 "HgN/A
6:20 AM48 °FClear.7 mph87%29.83 "Hg10 mi
5:50 AM52 °FPassing clouds.3 mph82%29.83 "HgN/A
Weather by CustomWeather, © 2014

See weather overview